Location: Medlow Airstrip Trail, Medlow Bath NSW 2780, Australia
(33.6682°S, 150.3233°E)
Time: 03:09:32
(UTC+11:00)

LightSail 2 - Pass Details

Date: 27 August 2019
Orbit: 707 x 722 km, 24.0° (Epoch: 22 October)

Event Time Altitude Azimuth Distance (km) Brightness Sun altitude
Exits shadow 03:59:31 13° 22° (NNE) 1,990 7.6 -30.8°
Drops below altitude 10° 04:01:39 10° 46° (NE) 2,192 8.1 -30.4°
Sets 04:05:26 0° 73° (ENE) 3,120 9.4 -29.6°
